Change the Weather History Date:

Saturday, October 6, 2012

  Actual Average Record
Temperature  
Mean Temperature 34 °F -  
Max Temperature 46 °F 64 °F 88 °F (1997)
Min Temperature 21 °F 38 °F 20 °F (1976)
Degree Days  
Heating Degree Days 31    
Moisture  
Dew Point 21 °F    
Average Humidity 61    
Maximum Humidity 78    
Minimum Humidity 42    
Precipitation  
Precipitation 0.00 in - - ()
Sea Level Pressure  
Sea Level Pressure 30.32 in    
Wind  
Wind Speed 10 mph (NW)    
Max Wind Speed 17 mph    
Max Gust Speed 23 mph    
Visibility 10 miles    
Events      
Averages and records for this station are not official NWS values.
T = Trace of Precipitation, MM = Missing Value Source: NWS Daily Summary

Daily Weather History Graph

Daily Weather History Graph

Search for Another Location

Airport or City:

Trip Planner

Search our weather history database for the weather conditions in past years. The results will help you decide how hot, cold, wet, or windy it might be!

Date:

Astronomy

Oct. 06, 2012 Rise Set
Actual Time 7:24 AM CDT 6:52 PM CDT
Civil Twilight 6:56 AM CDT 7:20 PM CDT
Nautical Twilight 6:23 AM CDT 7:53 PM CDT
Astronomical Twilight 5:49 AM CDT 8:26 PM CDT
Moon 11:01 PM CDT (10/6) 1:27 PM CDT (10/6)
Length of Visible Light 12h 24m
Length of Day
11h 27m
Waning Gibbous, 65% of the Moon is Illuminated
Oct 6
Waning Gibbous
Oct 8
Last Quarter
Oct 15
New
Oct 21
First Quarter
Oct 29
Full

Hourly Weather History & Observations

Time (CDT) Temp. Windchill Dew Point Humidity Pressure Visibility Wind Dir Wind Speed Gust Speed Precip Events Conditions
12:53 AM 25.0 °F 15.5 °F 17.1 °F 72% 30.29 in 10.0 mi WNW 9.2 mph - N/A   Clear
1:53 AM 24.1 °F 15.2 °F 16.0 °F 71% 30.29 in 10.0 mi West 8.1 mph - N/A   Clear
2:53 AM 27.0 °F 17.3 °F 19.0 °F 72% 30.29 in 10.0 mi WNW 10.4 mph - N/A   Clear
3:53 AM 30.9 °F 22.2 °F 21.0 °F 67% 30.27 in 10.0 mi WNW 10.4 mph - N/A   Overcast
4:53 AM 28.9 °F 20.4 °F 21.0 °F 72% 30.29 in 10.0 mi WNW 9.2 mph - N/A   Partly Cloudy
5:36 AM 28.4 °F 20.4 °F 21.2 °F 74% 30.26 in 10.0 mi WNW 8.1 mph - N/A   Mostly Cloudy
5:53 AM 30.0 °F 21.1 °F 21.9 °F 72% 30.30 in 10.0 mi WNW 10.4 mph - N/A   Overcast
6:53 AM 32.0 °F 24.2 °F 23.0 °F 69% 30.32 in 10.0 mi WNW 9.2 mph - N/A   Overcast
7:43 AM 32.0 °F 24.8 °F 23.0 °F 69% 30.29 in 10.0 mi WNW 8.1 mph - N/A   Overcast
7:53 AM 32.0 °F 25.6 °F 23.0 °F 69% 30.34 in 10.0 mi WNW 6.9 mph - N/A   Overcast
8:53 AM 36.0 °F 27.1 °F 25.0 °F 64% 30.35 in 10.0 mi NW 13.8 mph - N/A   Overcast
9:53 AM 37.0 °F 27.7 °F 25.0 °F 62% 30.36 in 10.0 mi North 16.1 mph - N/A   Overcast
10:53 AM 39.9 °F 31.1 °F 25.0 °F 55% 30.36 in 10.0 mi North 17.3 mph 23.0 mph N/A   Mostly Cloudy
11:25 AM 39.2 °F 31.2 °F 24.8 °F 56% 30.31 in 10.0 mi NNW 13.8 mph 23.0 mph N/A   Mostly Cloudy
11:53 AM 41.0 °F 33.5 °F 25.0 °F 53% 30.36 in 10.0 mi NNW 13.8 mph - N/A   Overcast
12:53 PM 42.1 °F 34.2 °F 24.1 °F 49% 30.36 in 10.0 mi North 16.1 mph - N/A   Overcast
1:53 PM 44.1 °F 36.8 °F 23.0 °F 43% 30.34 in 10.0 mi NNW 16.1 mph - N/A   Mostly Cloudy
2:53 PM 43.0 °F 35.4 °F 21.9 °F 43% 30.32 in 10.0 mi NNW 16.1 mph 23.0 mph N/A   Overcast
3:53 PM 43.0 °F 35.4 °F 23.0 °F 45% 30.31 in 10.0 mi NNW 16.1 mph 21.9 mph N/A   Mostly Cloudy
4:53 PM 43.0 °F 37.7 °F 21.9 °F 43% 30.31 in 10.0 mi NW 9.2 mph - N/A   Partly Cloudy
5:53 PM 43.0 °F 37.2 °F 21.0 °F 42% 30.31 in 10.0 mi NNW 10.4 mph - N/A   Partly Cloudy
6:53 PM 37.9 °F 32.7 °F 19.9 °F 48% 30.31 in 10.0 mi NNW 6.9 mph - N/A   Clear
7:53 PM 33.1 °F 28.7 °F 19.0 °F 56% 30.33 in 10.0 mi NW 4.6 mph - N/A   Clear
8:53 PM 28.9 °F 22.8 °F 18.0 °F 64% 30.34 in 10.0 mi North 5.8 mph - N/A   Clear
9:53 PM 24.1 °F 17.0 °F 16.0 °F 71% 30.34 in 10.0 mi NNW 5.8 mph - N/A   Clear
11:53 PM 21.0 °F 13.4 °F 15.1 °F 78% 30.32 in 10.0 mi WNW 5.8 mph - N/A   Clear